• In Hungary
  • List of Countries
  • For 7 days
  • Water Temperature
  • Satellite Maps
  • Weather Map
  • News
  • Weather Widgets
  • user-avatar
    Login

    Hourly Weather Hirne

    Today, 16 December, Saturday

    Time Temperature Precipitation Wind Pressure Humidity
    00:00 +1°C° 0 mm 4 mps 744 mmHg 96%
    01:00 +1°C° 0 mm 4 mps 744 mmHg 96%
    02:00 +2°C° 0 mm 3 mps 744 mmHg 96%
    03:00 +1°C° 0 mm 4 mps 743 mmHg 96%
    04:00 +2°C° 0 mm 5 mps 743 mmHg 96%
    05:00 +2°C° 0 mm 6 mps 743 mmHg 96%
    06:00 +2°C° 0 mm 6 mps 743 mmHg 95%
    07:00 +3°C° 0 mm 6 mps 743 mmHg 95%
    08:00 +3°C° 0 mm 6 mps 742 mmHg 95%
    09:00 +4°C° 0.1 mm 7 mps 742 mmHg 94%
    10:00 +4°C° 0.1 mm 7 mps 742 mmHg 92%
    11:00 +5°C° 0.1 mm 8 mps 741 mmHg 91%
    12:00 +5°C° 0.7 mm 8 mps 741 mmHg 90%
    13:00 +6°C° 0.7 mm 8 mps 741 mmHg 89%
    14:00 +6°C° 0.7 mm 8 mps 740 mmHg 88%
    15:00 +6°C° 0.1 mm 8 mps 740 mmHg 84%
    16:00 +7°C° 0.1 mm 9 mps 740 mmHg 81%
    17:00 +7°C° 0.1 mm 9 mps 740 mmHg 77%
    18:00 +7°C° 0 mm 9 mps 740 mmHg 77%
    19:00 +7°C° 0 mm 9 mps 740 mmHg 78%
    20:00 +7°C° 0 mm 9 mps 740 mmHg 78%
    21:00 +7°C° 0.1 mm 8 mps 740 mmHg 81%
    22:00 +9°C° 0.1 mm 8 mps 740 mmHg 83%
    23:00 +9°C° 0.1 mm 8 mps 740 mmHg 85%

    Tomorrow, 17 December, Sunday

    Time Temperature Precipitation Wind Pressure Humidity
    00:00 +9°C° 0.1 mm 7 mps 740 mmHg 87%
    01:00 +9°C° 0.1 mm 7 mps 741 mmHg 88%
    02:00 +8°C° 0.1 mm 6 mps 741 mmHg 90%
    03:00 +8°C° 0.2 mm 6 mps 742 mmHg 91%
    04:00 +8°C° 0.2 mm 5 mps 742 mmHg 91%
    05:00 +7°C° 0.2 mm 5 mps 742 mmHg 92%
    06:00 +6°C° 0.6 mm 4 mps 743 mmHg 90%
    07:00 +5°C° 0.6 mm 4 mps 743 mmHg 89%
    08:00 +4°C° 0.6 mm 4 mps 744 mmHg 87%
    09:00 +4°C° 0.8 mm 4 mps 744 mmHg 86%
    10:00 +3°C° 0.8 mm 4 mps 744 mmHg 85%
    11:00 +3°C° 0.8 mm 3 mps 745 mmHg 84%
    12:00 +3°C° 0.7 mm 3 mps 745 mmHg 85%
    13:00 +3°C° 0.7 mm 4 mps 745 mmHg 85%
    14:00 +1°C° 0.7 mm 4 mps 745 mmHg 86%
    15:00 +1°C° 0.9 mm 4 mps 745 mmHg 87%
    16:00 +1°C° 0.9 mm 4 mps 745 mmHg 88%
    17:00 +1°C° 0.9 mm 4 mps 746 mmHg 89%
    18:00 +1°C° 0.5 mm 4 mps 746 mmHg 90%
    19:00 +1°C° 0.5 mm 4 mps 746 mmHg 90%
    20:00 +1°C° 0.5 mm 4 mps 746 mmHg 90%
    21:00 0°C° 1.1 mm 5 mps 746 mmHg 91%
    22:00 0°C° 1.1 mm 5 mps 746 mmHg 91%
    23:00 0°C° 1.1 mm 5 mps 746 mmHg 92%

    Day after tomorrow, 18 December, Monday

    Time Temperature Precipitation Wind Pressure Humidity
    00:00 0°C° 0.7 mm 5 mps 746 mmHg 92%
    01:00 0°C° 0.7 mm 5 mps 745 mmHg 92%
    02:00 0°C° 0.7 mm 5 mps 745 mmHg 92%
    03:00 -1°C° 1.1 mm 6 mps 745 mmHg 92%
    04:00 -1°C° 1.1 mm 6 mps 745 mmHg 93%
    05:00 -2°C° 1.1 mm 6 mps 744 mmHg 93%
    06:00 -2°C° 0.6 mm 6 mps 744 mmHg 92%
    07:00 -2°C° 0.6 mm 6 mps 744 mmHg 92%
    08:00 -2°C° 0.6 mm 6 mps 744 mmHg 92%
    09:00 -2°C° 0.4 mm 6 mps 744 mmHg 93%
    10:00 -1°C° 0.4 mm 6 mps 744 mmHg 93%
    11:00 -1°C° 0.4 mm 6 mps 744 mmHg 94%
    12:00 -1°C° 0.6 mm 6 mps 743 mmHg 94%
    13:00 0°C° 0.6 mm 5 mps 743 mmHg 95%
    14:00 0°C° 0.6 mm 5 mps 743 mmHg 95%
    15:00 0°C° 0.4 mm 5 mps 743 mmHg 95%
    16:00 0°C° 0.4 mm 5 mps 743 mmHg 95%
    17:00 0°C° 0.4 mm 4 mps 743 mmHg 95%
    18:00 0°C° 0.2 mm 4 mps 743 mmHg 95%
    19:00 -1°C° 0.2 mm 4 mps 743 mmHg 95%
    20:00 -1°C° 0.2 mm 4 mps 743 mmHg 94%
    21:00 -1°C° 0.1 mm 5 mps 743 mmHg 94%
    22:00 -1°C° 0.1 mm 5 mps 744 mmHg 93%
    23:00 -1°C° 0.1 mm 5 mps 744 mmHg 93%

    19 December, Tuesday

    Time Temperature Precipitation Wind Pressure Humidity
    00:00 -2°C° 0.1 mm 5 mps 744 mmHg 92%
    01:00 -2°C° 0.1 mm 5 mps 745 mmHg 91%
    02:00 -2°C° 0.1 mm 5 mps 745 mmHg 91%
    03:00 -3°C° 0.1 mm 6 mps 745 mmHg 91%
    04:00 -3°C° 0.1 mm 6 mps 745 mmHg 90%
    05:00 -3°C° 0.1 mm 6 mps 745 mmHg 90%
    06:00 -4°C° 0.1 mm 6 mps 746 mmHg 90%
    07:00 -4°C° 0.1 mm 6 mps 746 mmHg 89%
    08:00 -4°C° 0.1 mm 6 mps 747 mmHg 89%
    09:00 -4°C° 0.1 mm 6 mps 747 mmHg 88%
    10:00 -4°C° 0.1 mm 7 mps 747 mmHg 88%
    11:00 -4°C° 0.1 mm 7 mps 748 mmHg 87%
    12:00 -4°C° 0.1 mm 7 mps 748 mmHg 87%
    13:00 -4°C° 0.1 mm 7 mps 748 mmHg 86%
    14:00 -4°C° 0.1 mm 7 mps 748 mmHg 86%
    15:00 -4°C° 0.1 mm 7 mps 749 mmHg 86%
    16:00 -6°C° 0.1 mm 7 mps 749 mmHg 86%
    17:00 -5°C° 0.1 mm 6 mps 750 mmHg 87%
    18:00 -5°C° 0.1 mm 6 mps 750 mmHg 87%
    19:00 -5°C° 0.1 mm 6 mps 750 mmHg 87%
    20:00 -6°C° 0.1 mm 6 mps 751 mmHg 87%
    21:00 -6°C° 0 mm 6 mps 751 mmHg 87%
    22:00 -6°C° 0 mm 6 mps 751 mmHg 87%
    23:00 -6°C° 0 mm 5 mps 751 mmHg 87%

    20 December, Wednesday

    Time Temperature Precipitation Wind Pressure Humidity
    00:00 -6°C° 0 mm 5 mps 751 mmHg 87%
    01:00 -6°C° 0 mm 5 mps 752 mmHg 86%
    02:00 -6°C° 0 mm 5 mps 752 mmHg 86%
    03:00 -5°C° 0 mm 4 mps 752 mmHg 86%
    04:00 -5°C° 0 mm 4 mps 752 mmHg 86%
    05:00 -5°C° 0 mm 4 mps 752 mmHg 86%
    06:00 -5°C° 0 mm 4 mps 752 mmHg 86%
    07:00 -5°C° 0 mm 3 mps 753 mmHg 86%
    08:00 -5°C° 0 mm 3 mps 753 mmHg 86%
    09:00 -5°C° 0 mm 3 mps 753 mmHg 84%
    10:00 -4°C° 0 mm 3 mps 753 mmHg 82%
    11:00 -4°C° 0 mm 3 mps 754 mmHg 79%
    12:00 -4°C° 0 mm 3 mps 754 mmHg 79%
    13:00 -4°C° 0 mm 3 mps 754 mmHg 79%
    14:00 -3°C° 0 mm 2 mps 753 mmHg 78%
    15:00 -3°C° 0 mm 2 mps 754 mmHg 79%
    16:00 -3°C° 0 mm 2 mps 754 mmHg 80%
    17:00 -3°C° 0 mm 2 mps 754 mmHg 82%
    18:00 -1°C° 0 mm 1 mps 754 mmHg 82%
    19:00 -1°C° 0 mm 1 mps 755 mmHg 82%
    20:00 -1°C° 0 mm 1 mps 755 mmHg 82%
    21:00 -2°C° 0 mm 1 mps 755 mmHg 83%
    22:00 -2°C° 0 mm 1 mps 755 mmHg 83%
    23:00 -2°C° 0 mm 1 mps 755 mmHg 84%

    21 December, Thursday

    Time Temperature Precipitation Wind Pressure Humidity
    00:00 -2°C° 0 mm 1 mps 755 mmHg 84%
    01:00 -2°C° 0 mm 1 mps 755 mmHg 85%
    02:00 -2°C° 0 mm 1 mps 755 mmHg 85%
    03:00 -2°C° 0 mm 1 mps 755 mmHg 86%
    04:00 -2°C° 0 mm 1 mps 755 mmHg 87%
    05:00 -4°C° 0 mm 0 mps 756 mmHg 87%
    06:00 -3°C° 0 mm 1 mps 756 mmHg 88%
    07:00 -3°C° 0 mm 1 mps 756 mmHg 88%
    08:00 -2°C° 0 mm 1 mps 756 mmHg 89%
    09:00 -2°C° 0 mm 1 mps 756 mmHg 87%
    10:00 -2°C° 0 mm 1 mps 756 mmHg 85%
    11:00 -1°C° 0 mm 1 mps 756 mmHg 83%
    12:00 -1°C° 0 mm 1 mps 755 mmHg 83%
    13:00 -1°C° 0 mm 1 mps 755 mmHg 83%
    14:00 -1°C° 0 mm 1 mps 754 mmHg 83%
    15:00 -2°C° 0 mm 1 mps 754 mmHg 85%
    16:00 -3°C° 0 mm 1 mps 754 mmHg 87%
    17:00 -3°C° 0 mm 1 mps 754 mmHg 89%
    18:00 -3°C° 0 mm 1 mps 754 mmHg 89%
    19:00 -4°C° 0 mm 1 mps 754 mmHg 90%
    20:00 -4°C° 0 mm 1 mps 754 mmHg 91%
    21:00 -4°C° 0 mm 1 mps 753 mmHg 91%
    22:00 -4°C° 0 mm 1 mps 753 mmHg 91%
    23:00 -6°C° 0 mm 1 mps 753 mmHg 91%
    Show more